Index of /20260501/WXO-DD/model_rdps/10km/06/039
Name Last modified Size Description
Parent Directory -
20260501T06Z_MSC_RDPS_AbsoluteVorticity_IsbL-0250_RLatLon0.09_PT039H.grib2 2026-05-01 08:51 495K
20260501T06Z_MSC_RDPS_AbsoluteVorticity_IsbL-0500_RLatLon0.09_PT039H.grib2 2026-05-01 08:51 566K
20260501T06Z_MSC_RDPS_AbsoluteVorticity_IsbL-0700_RLatLon0.09_PT039H.grib2 2026-05-01 08:51 627K
20260501T06Z_MSC_RDPS_AbsoluteVorticity_IsbL-0850_RLatLon0.09_PT039H.grib2 2026-05-01 08:51 777K
20260501T06Z_MSC_RDPS_AirTemp_AGL-120m_RLatLon0.09_PT039H.grib2 2026-05-01 08:51 391K
20260501T06Z_MSC_RDPS_AirTemp_AGL-2m_RLatLon0.09_PT039H.grib2 2026-05-01 08:51 625K
20260501T06Z_MSC_RDPS_AirTemp_AGL-40m_RLatLon0.09_PT039H.grib2 2026-05-01 08:51 399K
20260501T06Z_MSC_RDPS_AirTemp_AGL-80m_RLatLon0.09_PT039H.grib2 2026-05-01 08:51 395K
20260501T06Z_MSC_RDPS_AirTemp_IsbL-0001_RLatLon0.09_PT039H.grib2 2026-05-01 08:51 273K
20260501T06Z_MSC_RDPS_AirTemp_IsbL-0005_RLatLon0.09_PT039H.grib2 2026-05-01 08:51 290K
20260501T06Z_MSC_RDPS_AirTemp_IsbL-0010_RLatLon0.09_PT039H.grib2 2026-05-01 08:51 298K
20260501T06Z_MSC_RDPS_AirTemp_IsbL-0020_RLatLon0.09_PT039H.grib2 2026-05-01 08:51 409K
20260501T06Z_MSC_RDPS_AirTemp_IsbL-0030_RLatLon0.09_PT039H.grib2 2026-05-01 08:51 338K
20260501T06Z_MSC_RDPS_AirTemp_IsbL-0050_RLatLon0.09_PT039H.grib2 2026-05-01 08:51 315K
20260501T06Z_MSC_RDPS_AirTemp_IsbL-0100_RLatLon0.09_PT039H.grib2 2026-05-01 08:51 422K
20260501T06Z_MSC_RDPS_AirTemp_IsbL-0150_RLatLon0.09_PT039H.grib2 2026-05-01 08:51 418K
20260501T06Z_MSC_RDPS_AirTemp_IsbL-0175_RLatLon0.09_PT039H.grib2 2026-05-01 08:51 410K
20260501T06Z_MSC_RDPS_AirTemp_IsbL-0200_RLatLon0.09_PT039H.grib2 2026-05-01 08:51 414K
20260501T06Z_MSC_RDPS_AirTemp_IsbL-0225_RLatLon0.09_PT039H.grib2 2026-05-01 08:51 414K
20260501T06Z_MSC_RDPS_AirTemp_IsbL-0250_RLatLon0.09_PT039H.grib2 2026-05-01 08:51 420K
20260501T06Z_MSC_RDPS_AirTemp_IsbL-0275_RLatLon0.09_PT039H.grib2 2026-05-01 08:51 402K
20260501T06Z_MSC_RDPS_AirTemp_IsbL-0300_RLatLon0.09_PT039H.grib2 2026-05-01 08:51 434K
20260501T06Z_MSC_RDPS_AirTemp_IsbL-0350_RLatLon0.09_PT039H.grib2 2026-05-01 08:51 425K
20260501T06Z_MSC_RDPS_AirTemp_IsbL-0400_RLatLon0.09_PT039H.grib2 2026-05-01 08:51 392K
20260501T06Z_MSC_RDPS_AirTemp_IsbL-0450_RLatLon0.09_PT039H.grib2 2026-05-01 08:51 399K
20260501T06Z_MSC_RDPS_AirTemp_IsbL-0500_RLatLon0.09_PT039H.grib2 2026-05-01 08:51 410K
20260501T06Z_MSC_RDPS_AirTemp_IsbL-0550_RLatLon0.09_PT039H.grib2 2026-05-01 08:51 429K
20260501T06Z_MSC_RDPS_AirTemp_IsbL-0600_RLatLon0.09_PT039H.grib2 2026-05-01 08:51 446K
20260501T06Z_MSC_RDPS_AirTemp_IsbL-0650_RLatLon0.09_PT039H.grib2 2026-05-01 08:51 466K
20260501T06Z_MSC_RDPS_AirTemp_IsbL-0700_RLatLon0.09_PT039H.grib2 2026-05-01 08:51 386K
20260501T06Z_MSC_RDPS_AirTemp_IsbL-0750_RLatLon0.09_PT039H.grib2 2026-05-01 08:51 415K
20260501T06Z_MSC_RDPS_AirTemp_IsbL-0800_RLatLon0.09_PT039H.grib2 2026-05-01 08:51 452K
20260501T06Z_MSC_RDPS_AirTemp_IsbL-0850_RLatLon0.09_PT039H.grib2 2026-05-01 08:51 500K
20260501T06Z_MSC_RDPS_AirTemp_IsbL-0875_RLatLon0.09_PT039H.grib2 2026-05-01 08:51 521K
20260501T06Z_MSC_RDPS_AirTemp_IsbL-0900_RLatLon0.09_PT039H.grib2 2026-05-01 08:51 532K
20260501T06Z_MSC_RDPS_AirTemp_IsbL-0925_RLatLon0.09_PT039H.grib2 2026-05-01 08:51 527K
20260501T06Z_MSC_RDPS_AirTemp_IsbL-0950_RLatLon0.09_PT039H.grib2 2026-05-01 08:51 527K
20260501T06Z_MSC_RDPS_AirTemp_IsbL-0970_RLatLon0.09_PT039H.grib2 2026-05-01 08:51 524K
20260501T06Z_MSC_RDPS_AirTemp_IsbL-0985_RLatLon0.09_PT039H.grib2 2026-05-01 08:51 514K
20260501T06Z_MSC_RDPS_AirTemp_IsbL-1000_RLatLon0.09_PT039H.grib2 2026-05-01 08:51 500K
20260501T06Z_MSC_RDPS_AirTemp_IsbL-1015_RLatLon0.09_PT039H.grib2 2026-05-01 08:51 496K
20260501T06Z_MSC_RDPS_Albedo_Sfc_RLatLon0.09_PT039H.grib2 2026-05-01 08:51 162K
20260501T06Z_MSC_RDPS_CAPE_Sfc_RLatLon0.09_PT039H.grib2 2026-05-01 08:51 1.7M
20260501T06Z_MSC_RDPS_CIN_Sfc_RLatLon0.09_PT039H.grib2 2026-05-01 08:51 1.3M
20260501T06Z_MSC_RDPS_CloudWater_EAtm_RLatLon0.09_PT039H.grib2 2026-05-01 08:51 224K
20260501T06Z_MSC_RDPS_ConvectivePrecip-Accum_Sfc_RLatLon0.09_PT039H.grib2 2026-05-01 08:51 968K
20260501T06Z_MSC_RDPS_DewPointDepression_AGL-2m_RLatLon0.09_PT039H.grib2 2026-05-01 08:51 422K
20260501T06Z_MSC_RDPS_DewPointDepression_IsbL-0001_RLatLon0.09_PT039H.grib2 2026-05-01 08:51 193
20260501T06Z_MSC_RDPS_DewPointDepression_IsbL-0005_RLatLon0.09_PT039H.grib2 2026-05-01 08:51 193
20260501T06Z_MSC_RDPS_DewPointDepression_IsbL-0010_RLatLon0.09_PT039H.grib2 2026-05-01 08:51 193
20260501T06Z_MSC_RDPS_DewPointDepression_IsbL-0020_RLatLon0.09_PT039H.grib2 2026-05-01 08:51 193
20260501T06Z_MSC_RDPS_DewPointDepression_IsbL-0030_RLatLon0.09_PT039H.grib2 2026-05-01 08:51 193
20260501T06Z_MSC_RDPS_DewPointDepression_IsbL-0050_RLatLon0.09_PT039H.grib2 2026-05-01 08:51 106K
20260501T06Z_MSC_RDPS_DewPointDepression_IsbL-0100_RLatLon0.09_PT039H.grib2 2026-05-01 08:51 124K
20260501T06Z_MSC_RDPS_DewPointDepression_IsbL-0150_RLatLon0.09_PT039H.grib2 2026-05-01 08:51 153K
20260501T06Z_MSC_RDPS_DewPointDepression_IsbL-0175_RLatLon0.09_PT039H.grib2 2026-05-01 08:51 189K
20260501T06Z_MSC_RDPS_DewPointDepression_IsbL-0200_RLatLon0.09_PT039H.grib2 2026-05-01 08:51 221K
20260501T06Z_MSC_RDPS_DewPointDepression_IsbL-0225_RLatLon0.09_PT039H.grib2 2026-05-01 08:51 257K
20260501T06Z_MSC_RDPS_DewPointDepression_IsbL-0250_RLatLon0.09_PT039H.grib2 2026-05-01 08:51 294K
20260501T06Z_MSC_RDPS_DewPointDepression_IsbL-0275_RLatLon0.09_PT039H.grib2 2026-05-01 08:51 306K
20260501T06Z_MSC_RDPS_DewPointDepression_IsbL-0300_RLatLon0.09_PT039H.grib2 2026-05-01 08:51 324K
20260501T06Z_MSC_RDPS_DewPointDepression_IsbL-0350_RLatLon0.09_PT039H.grib2 2026-05-01 08:51 333K
20260501T06Z_MSC_RDPS_DewPointDepression_IsbL-0400_RLatLon0.09_PT039H.grib2 2026-05-01 08:51 343K
20260501T06Z_MSC_RDPS_DewPointDepression_IsbL-0450_RLatLon0.09_PT039H.grib2 2026-05-01 08:51 346K
20260501T06Z_MSC_RDPS_DewPointDepression_IsbL-0500_RLatLon0.09_PT039H.grib2 2026-05-01 08:51 354K
20260501T06Z_MSC_RDPS_DewPointDepression_IsbL-0550_RLatLon0.09_PT039H.grib2 2026-05-01 08:51 370K
20260501T06Z_MSC_RDPS_DewPointDepression_IsbL-0600_RLatLon0.09_PT039H.grib2 2026-05-01 08:51 382K
20260501T06Z_MSC_RDPS_DewPointDepression_IsbL-0650_RLatLon0.09_PT039H.grib2 2026-05-01 08:51 391K
20260501T06Z_MSC_RDPS_DewPointDepression_IsbL-0700_RLatLon0.09_PT039H.grib2 2026-05-01 08:51 406K
20260501T06Z_MSC_RDPS_DewPointDepression_IsbL-0750_RLatLon0.09_PT039H.grib2 2026-05-01 08:51 423K
20260501T06Z_MSC_RDPS_DewPointDepression_IsbL-0800_RLatLon0.09_PT039H.grib2 2026-05-01 08:51 446K
20260501T06Z_MSC_RDPS_DewPointDepression_IsbL-0850_RLatLon0.09_PT039H.grib2 2026-05-01 08:51 477K
20260501T06Z_MSC_RDPS_DewPointDepression_IsbL-0875_RLatLon0.09_PT039H.grib2 2026-05-01 08:51 480K
20260501T06Z_MSC_RDPS_DewPointDepression_IsbL-0900_RLatLon0.09_PT039H.grib2 2026-05-01 08:51 470K
20260501T06Z_MSC_RDPS_DewPointDepression_IsbL-0925_RLatLon0.09_PT039H.grib2 2026-05-01 08:51 453K
20260501T06Z_MSC_RDPS_DewPointDepression_IsbL-0950_RLatLon0.09_PT039H.grib2 2026-05-01 08:51 445K
20260501T06Z_MSC_RDPS_DewPointDepression_IsbL-0970_RLatLon0.09_PT039H.grib2 2026-05-01 08:51 438K
20260501T06Z_MSC_RDPS_DewPointDepression_IsbL-0985_RLatLon0.09_PT039H.grib2 2026-05-01 08:51 434K
20260501T06Z_MSC_RDPS_DewPointDepression_IsbL-1000_RLatLon0.09_PT039H.grib2 2026-05-01 08:51 429K
20260501T06Z_MSC_RDPS_DewPointDepression_IsbL-1015_RLatLon0.09_PT039H.grib2 2026-05-01 08:51 421K
20260501T06Z_MSC_RDPS_DewPoint_AGL-2m_RLatLon0.09_PT039H.grib2 2026-05-01 08:51 397K
20260501T06Z_MSC_RDPS_DownwardLongwaveRadiationFlux-Accum_Sfc_RLatLon0.09_PT039H.grib2 2026-05-01 08:51 382K
20260501T06Z_MSC_RDPS_DownwardShortwaveRadiationFlux-Accum_NTAtm_RLatLon0.09_PT039H.grib2 2026-05-01 08:51 150K
20260501T06Z_MSC_RDPS_DownwardShortwaveRadiationFlux-Accum_Sfc_RLatLon0.09_PT039H.grib2 2026-05-01 08:51 532K
20260501T06Z_MSC_RDPS_FreezingRain-Accum1h_Sfc_RLatLon0.09_PT039H.grib2 2026-05-01 08:51 17K
20260501T06Z_MSC_RDPS_FreezingRain-Accum3h_Sfc_RLatLon0.09_PT039H.grib2 2026-05-01 08:51 23K
20260501T06Z_MSC_RDPS_FreezingRain-Accum_Sfc_RLatLon0.09_PT039H.grib2 2026-05-01 08:51 150K
20260501T06Z_MSC_RDPS_GeopotentialHeight_IsbL-0001_RLatLon0.09_PT039H.grib2 2026-05-01 08:51 243K
20260501T06Z_MSC_RDPS_GeopotentialHeight_IsbL-0005_RLatLon0.09_PT039H.grib2 2026-05-01 08:51 306K
20260501T06Z_MSC_RDPS_GeopotentialHeight_IsbL-0010_RLatLon0.09_PT039H.grib2 2026-05-01 08:51 307K
20260501T06Z_MSC_RDPS_GeopotentialHeight_IsbL-0020_RLatLon0.09_PT039H.grib2 2026-05-01 08:51 307K
20260501T06Z_MSC_RDPS_GeopotentialHeight_IsbL-0030_RLatLon0.09_PT039H.grib2 2026-05-01 08:51 308K
20260501T06Z_MSC_RDPS_GeopotentialHeight_IsbL-0050_RLatLon0.09_PT039H.grib2 2026-05-01 08:51 310K
20260501T06Z_MSC_RDPS_GeopotentialHeight_IsbL-0100_RLatLon0.09_PT039H.grib2 2026-05-01 08:51 285K
20260501T06Z_MSC_RDPS_GeopotentialHeight_IsbL-0150_RLatLon0.09_PT039H.grib2 2026-05-01 08:51 231K
20260501T06Z_MSC_RDPS_GeopotentialHeight_IsbL-0175_RLatLon0.09_PT039H.grib2 2026-05-01 08:51 265K
20260501T06Z_MSC_RDPS_GeopotentialHeight_IsbL-0200_RLatLon0.09_PT039H.grib2 2026-05-01 08:51 267K
20260501T06Z_MSC_RDPS_GeopotentialHeight_IsbL-0225_RLatLon0.09_PT039H.grib2 2026-05-01 08:51 268K
20260501T06Z_MSC_RDPS_GeopotentialHeight_IsbL-0250_RLatLon0.09_PT039H.grib2 2026-05-01 08:51 268K
20260501T06Z_MSC_RDPS_GeopotentialHeight_IsbL-0275_RLatLon0.09_PT039H.grib2 2026-05-01 08:51 266K
20260501T06Z_MSC_RDPS_GeopotentialHeight_IsbL-0300_RLatLon0.09_PT039H.grib2 2026-05-01 08:51 265K
20260501T06Z_MSC_RDPS_GeopotentialHeight_IsbL-0350_RLatLon0.09_PT039H.grib2 2026-05-01 08:51 231K
20260501T06Z_MSC_RDPS_GeopotentialHeight_IsbL-0400_RLatLon0.09_PT039H.grib2 2026-05-01 08:51 228K
20260501T06Z_MSC_RDPS_GeopotentialHeight_IsbL-0450_RLatLon0.09_PT039H.grib2 2026-05-01 08:51 297K
20260501T06Z_MSC_RDPS_GeopotentialHeight_IsbL-0500_RLatLon0.09_PT039H.grib2 2026-05-01 08:51 293K
20260501T06Z_MSC_RDPS_GeopotentialHeight_IsbL-0550_RLatLon0.09_PT039H.grib2 2026-05-01 08:51 290K
20260501T06Z_MSC_RDPS_GeopotentialHeight_IsbL-0600_RLatLon0.09_PT039H.grib2 2026-05-01 08:51 288K
20260501T06Z_MSC_RDPS_GeopotentialHeight_IsbL-0650_RLatLon0.09_PT039H.grib2 2026-05-01 08:51 258K
20260501T06Z_MSC_RDPS_GeopotentialHeight_IsbL-0700_RLatLon0.09_PT039H.grib2 2026-05-01 08:51 257K
20260501T06Z_MSC_RDPS_GeopotentialHeight_IsbL-0750_RLatLon0.09_PT039H.grib2 2026-05-01 08:51 343K
20260501T06Z_MSC_RDPS_GeopotentialHeight_IsbL-0800_RLatLon0.09_PT039H.grib2 2026-05-01 08:51 349K
20260501T06Z_MSC_RDPS_GeopotentialHeight_IsbL-0850_RLatLon0.09_PT039H.grib2 2026-05-01 08:51 356K
20260501T06Z_MSC_RDPS_GeopotentialHeight_IsbL-0875_RLatLon0.09_PT039H.grib2 2026-05-01 08:51 360K
20260501T06Z_MSC_RDPS_GeopotentialHeight_IsbL-0900_RLatLon0.09_PT039H.grib2 2026-05-01 08:51 365K
20260501T06Z_MSC_RDPS_GeopotentialHeight_IsbL-0925_RLatLon0.09_PT039H.grib2 2026-05-01 08:51 368K
20260501T06Z_MSC_RDPS_GeopotentialHeight_IsbL-0950_RLatLon0.09_PT039H.grib2 2026-05-01 08:51 370K
20260501T06Z_MSC_RDPS_GeopotentialHeight_IsbL-0970_RLatLon0.09_PT039H.grib2 2026-05-01 08:51 378K
20260501T06Z_MSC_RDPS_GeopotentialHeight_IsbL-0985_RLatLon0.09_PT039H.grib2 2026-05-01 08:51 387K
20260501T06Z_MSC_RDPS_GeopotentialHeight_IsbL-1000_RLatLon0.09_PT039H.grib2 2026-05-01 08:51 399K
20260501T06Z_MSC_RDPS_GeopotentialHeight_IsbL-1015_RLatLon0.09_PT039H.grib2 2026-05-01 08:51 414K
20260501T06Z_MSC_RDPS_Humidex_Sfc_RLatLon0.09_PT039H.grib2 2026-05-01 08:51 2.4M
20260501T06Z_MSC_RDPS_IcePellets-Accum1h_Sfc_RLatLon0.09_PT039H.grib2 2026-05-01 08:51 6.1K
20260501T06Z_MSC_RDPS_IcePellets-Accum3h_Sfc_RLatLon0.09_PT039H.grib2 2026-05-01 08:51 7.5K
20260501T06Z_MSC_RDPS_IcePellets-Accum_Sfc_RLatLon0.09_PT039H.grib2 2026-05-01 08:51 26K
20260501T06Z_MSC_RDPS_KIndex_Sfc_RLatLon0.09_PT039H.grib2 2026-05-01 08:51 2.4M
20260501T06Z_MSC_RDPS_LatentHeatNetFlux_Sfc_RLatLon0.09_PT039H.grib2 2026-05-01 08:51 307K
20260501T06Z_MSC_RDPS_LiftedIndex-MU-VT_IsbL-0500_RLatLon0.09_PT039H.grib2 2026-05-01 08:51 2.4M
20260501T06Z_MSC_RDPS_NetLongwaveRadiationFlux-Accum_Sfc_RLatLon0.09_PT039H.grib2 2026-05-01 08:51 519K
20260501T06Z_MSC_RDPS_NetShortwaveRadiationFlux-Accum_Sfc_RLatLon0.09_PT039H.grib2 2026-05-01 08:51 535K
20260501T06Z_MSC_RDPS_PlanetaryBoundaryLayerHeight_Sfc_RLatLon0.09_PT039H.grib2 2026-05-01 08:51 1.0M
20260501T06Z_MSC_RDPS_Precip-Accum1h_Sfc_RLatLon0.09_PT039H.grib2 2026-05-01 08:51 1.2M
20260501T06Z_MSC_RDPS_Precip-Accum3h_Sfc_RLatLon0.09_PT039H.grib2 2026-05-01 08:51 1.3M
20260501T06Z_MSC_RDPS_Precip-Accum_Sfc_RLatLon0.09_PT039H.grib2 2026-05-01 08:51 2.0M
20260501T06Z_MSC_RDPS_PrecipRate_Sfc_RLatLon0.09_PT039H.grib2 2026-05-01 08:51 167K
20260501T06Z_MSC_RDPS_PrecipType-Instant_Sfc_RLatLon0.09_PT039H.grib2 2026-05-01 08:51 590K
20260501T06Z_MSC_RDPS_Pressure-Trend3h_Sfc_RLatLon0.09_PT039H.grib2 2026-05-01 08:51 1.2M
20260501T06Z_MSC_RDPS_Pressure_MSL_RLatLon0.09_PT039H.grib2 2026-05-01 08:51 329K
20260501T06Z_MSC_RDPS_Pressure_PVU-1.5_RLatLon0.09_PT039H.grib2 2026-05-01 08:51 2.5M
20260501T06Z_MSC_RDPS_Pressure_PVU-1_RLatLon0.09_PT039H.grib2 2026-05-01 08:51 2.4M
20260501T06Z_MSC_RDPS_Pressure_PVU-2_RLatLon0.09_PT039H.grib2 2026-05-01 08:51 2.4M
20260501T06Z_MSC_RDPS_Pressure_Sfc_RLatLon0.09_PT039H.grib2 2026-05-01 08:51 499K
20260501T06Z_MSC_RDPS_RadiativeTemp_Sfc_RLatLon0.09_PT039H.grib2 2026-05-01 08:51 327K
20260501T06Z_MSC_RDPS_Rain-Accum1h_Sfc_RLatLon0.09_PT039H.grib2 2026-05-01 08:51 543K
20260501T06Z_MSC_RDPS_Rain-Accum3h_Sfc_RLatLon0.09_PT039H.grib2 2026-05-01 08:51 622K
20260501T06Z_MSC_RDPS_Rain-Accum_Sfc_RLatLon0.09_PT039H.grib2 2026-05-01 08:51 1.5M
20260501T06Z_MSC_RDPS_RelativeHumidity_AGL-2m_RLatLon0.09_PT039H.grib2 2026-05-01 08:51 1.0M
20260501T06Z_MSC_RDPS_RelativeHumidity_IsbL-0010_RLatLon0.09_PT039H.grib2 2026-05-01 08:51 535K
20260501T06Z_MSC_RDPS_RelativeHumidity_IsbL-0020_RLatLon0.09_PT039H.grib2 2026-05-01 08:51 669K
20260501T06Z_MSC_RDPS_RelativeHumidity_IsbL-0030_RLatLon0.09_PT039H.grib2 2026-05-01 08:51 606K
20260501T06Z_MSC_RDPS_RelativeHumidity_IsbL-0050_RLatLon0.09_PT039H.grib2 2026-05-01 08:51 311K
20260501T06Z_MSC_RDPS_RelativeHumidity_IsbL-0100_RLatLon0.09_PT039H.grib2 2026-05-01 08:51 278K
20260501T06Z_MSC_RDPS_RelativeHumidity_IsbL-0150_RLatLon0.09_PT039H.grib2 2026-05-01 08:51 413K
20260501T06Z_MSC_RDPS_RelativeHumidity_IsbL-0175_RLatLon0.09_PT039H.grib2 2026-05-01 08:51 477K
20260501T06Z_MSC_RDPS_RelativeHumidity_IsbL-0200_RLatLon0.09_PT039H.grib2 2026-05-01 08:51 551K
20260501T06Z_MSC_RDPS_RelativeHumidity_IsbL-0225_RLatLon0.09_PT039H.grib2 2026-05-01 08:51 616K
20260501T06Z_MSC_RDPS_RelativeHumidity_IsbL-0250_RLatLon0.09_PT039H.grib2 2026-05-01 08:51 679K
20260501T06Z_MSC_RDPS_RelativeHumidity_IsbL-0275_RLatLon0.09_PT039H.grib2 2026-05-01 08:51 701K
20260501T06Z_MSC_RDPS_RelativeHumidity_IsbL-0300_RLatLon0.09_PT039H.grib2 2026-05-01 08:51 741K
20260501T06Z_MSC_RDPS_RelativeHumidity_IsbL-0350_RLatLon0.09_PT039H.grib2 2026-05-01 08:51 773K
20260501T06Z_MSC_RDPS_RelativeHumidity_IsbL-0400_RLatLon0.09_PT039H.grib2 2026-05-01 08:51 788K
20260501T06Z_MSC_RDPS_RelativeHumidity_IsbL-0450_RLatLon0.09_PT039H.grib2 2026-05-01 08:51 792K
20260501T06Z_MSC_RDPS_RelativeHumidity_IsbL-0500_RLatLon0.09_PT039H.grib2 2026-05-01 08:51 801K
20260501T06Z_MSC_RDPS_RelativeHumidity_IsbL-0550_RLatLon0.09_PT039H.grib2 2026-05-01 08:51 825K
20260501T06Z_MSC_RDPS_RelativeHumidity_IsbL-0600_RLatLon0.09_PT039H.grib2 2026-05-01 08:51 847K
20260501T06Z_MSC_RDPS_RelativeHumidity_IsbL-0650_RLatLon0.09_PT039H.grib2 2026-05-01 08:51 863K
20260501T06Z_MSC_RDPS_RelativeHumidity_IsbL-0700_RLatLon0.09_PT039H.grib2 2026-05-01 08:51 902K
20260501T06Z_MSC_RDPS_RelativeHumidity_IsbL-0750_RLatLon0.09_PT039H.grib2 2026-05-01 08:51 938K
20260501T06Z_MSC_RDPS_RelativeHumidity_IsbL-0800_RLatLon0.09_PT039H.grib2 2026-05-01 08:51 1.0M
20260501T06Z_MSC_RDPS_RelativeHumidity_IsbL-0850_RLatLon0.09_PT039H.grib2 2026-05-01 08:51 1.0M
20260501T06Z_MSC_RDPS_RelativeHumidity_IsbL-0875_RLatLon0.09_PT039H.grib2 2026-05-01 08:51 1.1M
20260501T06Z_MSC_RDPS_RelativeHumidity_IsbL-0900_RLatLon0.09_PT039H.grib2 2026-05-01 08:51 1.1M
20260501T06Z_MSC_RDPS_RelativeHumidity_IsbL-0925_RLatLon0.09_PT039H.grib2 2026-05-01 08:51 1.1M
20260501T06Z_MSC_RDPS_RelativeHumidity_IsbL-0950_RLatLon0.09_PT039H.grib2 2026-05-01 08:51 1.1M
20260501T06Z_MSC_RDPS_RelativeHumidity_IsbL-0970_RLatLon0.09_PT039H.grib2 2026-05-01 08:51 1.0M
20260501T06Z_MSC_RDPS_RelativeHumidity_IsbL-0985_RLatLon0.09_PT039H.grib2 2026-05-01 08:51 1.0M
20260501T06Z_MSC_RDPS_RelativeHumidity_IsbL-1000_RLatLon0.09_PT039H.grib2 2026-05-01 08:51 1.0M
20260501T06Z_MSC_RDPS_RelativeHumidity_IsbL-1015_RLatLon0.09_PT039H.grib2 2026-05-01 08:51 1.0M
20260501T06Z_MSC_RDPS_Runoff-Accum_Sfc_RLatLon0.09_PT039H.grib2 2026-05-01 08:51 69K
20260501T06Z_MSC_RDPS_SWEATIndex_Sfc_RLatLon0.09_PT039H.grib2 2026-05-01 08:51 2.4M
20260501T06Z_MSC_RDPS_SeeingIndex_EAtm_RLatLon0.09_PT039H.grib2 2026-05-01 08:51 1.0M
20260501T06Z_MSC_RDPS_SensibleHeatNetFlux_Sfc_RLatLon0.09_PT039H.grib2 2026-05-01 08:51 276K
20260501T06Z_MSC_RDPS_ShowalterIndex_IsbL-0500_RLatLon0.09_PT039H.grib2 2026-05-01 08:51 2.6M
20260501T06Z_MSC_RDPS_SkyTransparencyIndex_EAtm_RLatLon0.09_PT039H.grib2 2026-05-01 08:51 725K
20260501T06Z_MSC_RDPS_Snow-Accum1h_Sfc_RLatLon0.09_PT039H.grib2 2026-05-01 08:51 447K
20260501T06Z_MSC_RDPS_Snow-Accum3h_Sfc_RLatLon0.09_PT039H.grib2 2026-05-01 08:51 404K
20260501T06Z_MSC_RDPS_Snow-Accum_Sfc_RLatLon0.09_PT039H.grib2 2026-05-01 08:51 680K
20260501T06Z_MSC_RDPS_SnowDensity_Sfc_RLatLon0.09_PT039H.grib2 2026-05-01 08:51 173K
20260501T06Z_MSC_RDPS_SnowDepth_Sfc_RLatLon0.09_PT039H.grib2 2026-05-01 08:51 663K
20260501T06Z_MSC_RDPS_SoilTemp_DBS-0to10cm_RLatLon0.09_PT039H.grib2 2026-05-01 08:51 238K
20260501T06Z_MSC_RDPS_SoilTemp_Sfc_RLatLon0.09_PT039H.grib2 2026-05-01 08:51 291K
20260501T06Z_MSC_RDPS_SoilVolumetricIceContent_Sfc_RLatLon0.09_PT039H.grib2 2026-05-01 08:51 159K
20260501T06Z_MSC_RDPS_SoilVolumetricWaterContent_DBS-0to10cm_RLatLon0.09_PT039H.grib2 2026-05-01 08:51 271K
20260501T06Z_MSC_RDPS_SoilVolumetricWaterContent_DBS-0to1cm_RLatLon0.09_PT039H.grib2 2026-05-01 08:51 341K
20260501T06Z_MSC_RDPS_SpecificHumidity_AGL-120m_RLatLon0.09_PT039H.grib2 2026-05-01 08:51 497K
20260501T06Z_MSC_RDPS_SpecificHumidity_AGL-2m_RLatLon0.09_PT039H.grib2 2026-05-01 08:51 664K
20260501T06Z_MSC_RDPS_SpecificHumidity_AGL-40m_RLatLon0.09_PT039H.grib2 2026-05-01 08:51 501K
20260501T06Z_MSC_RDPS_SpecificHumidity_AGL-80m_RLatLon0.09_PT039H.grib2 2026-05-01 08:51 498K
20260501T06Z_MSC_RDPS_SpecificHumidity_IsbL-0001_RLatLon0.09_PT039H.grib2 2026-05-01 08:51 369K
20260501T06Z_MSC_RDPS_SpecificHumidity_IsbL-0005_RLatLon0.09_PT039H.grib2 2026-05-01 08:51 364K
20260501T06Z_MSC_RDPS_SpecificHumidity_IsbL-0010_RLatLon0.09_PT039H.grib2 2026-05-01 08:51 396K
20260501T06Z_MSC_RDPS_SpecificHumidity_IsbL-0020_RLatLon0.09_PT039H.grib2 2026-05-01 08:51 379K
20260501T06Z_MSC_RDPS_SpecificHumidity_IsbL-0030_RLatLon0.09_PT039H.grib2 2026-05-01 08:51 371K
20260501T06Z_MSC_RDPS_SpecificHumidity_IsbL-0050_RLatLon0.09_PT039H.grib2 2026-05-01 08:51 483K
20260501T06Z_MSC_RDPS_SpecificHumidity_IsbL-0100_RLatLon0.09_PT039H.grib2 2026-05-01 08:51 446K
20260501T06Z_MSC_RDPS_SpecificHumidity_IsbL-0150_RLatLon0.09_PT039H.grib2 2026-05-01 08:51 457K
20260501T06Z_MSC_RDPS_SpecificHumidity_IsbL-0175_RLatLon0.09_PT039H.grib2 2026-05-01 08:51 436K
20260501T06Z_MSC_RDPS_SpecificHumidity_IsbL-0200_RLatLon0.09_PT039H.grib2 2026-05-01 08:51 450K
20260501T06Z_MSC_RDPS_SpecificHumidity_IsbL-0225_RLatLon0.09_PT039H.grib2 2026-05-01 08:51 453K
20260501T06Z_MSC_RDPS_SpecificHumidity_IsbL-0250_RLatLon0.09_PT039H.grib2 2026-05-01 08:51 512K
20260501T06Z_MSC_RDPS_SpecificHumidity_IsbL-0275_RLatLon0.09_PT039H.grib2 2026-05-01 08:51 470K
20260501T06Z_MSC_RDPS_SpecificHumidity_IsbL-0300_RLatLon0.09_PT039H.grib2 2026-05-01 08:51 442K
20260501T06Z_MSC_RDPS_SpecificHumidity_IsbL-0350_RLatLon0.09_PT039H.grib2 2026-05-01 08:51 443K
20260501T06Z_MSC_RDPS_SpecificHumidity_IsbL-0400_RLatLon0.09_PT039H.grib2 2026-05-01 08:51 522K
20260501T06Z_MSC_RDPS_SpecificHumidity_IsbL-0450_RLatLon0.09_PT039H.grib2 2026-05-01 08:51 570K
20260501T06Z_MSC_RDPS_SpecificHumidity_IsbL-0500_RLatLon0.09_PT039H.grib2 2026-05-01 08:51 507K
20260501T06Z_MSC_RDPS_SpecificHumidity_IsbL-0550_RLatLon0.09_PT039H.grib2 2026-05-01 08:51 585K
20260501T06Z_MSC_RDPS_SpecificHumidity_IsbL-0600_RLatLon0.09_PT039H.grib2 2026-05-01 08:51 520K
20260501T06Z_MSC_RDPS_SpecificHumidity_IsbL-0650_RLatLon0.09_PT039H.grib2 2026-05-01 08:51 562K
20260501T06Z_MSC_RDPS_SpecificHumidity_IsbL-0700_RLatLon0.09_PT039H.grib2 2026-05-01 08:51 610K
20260501T06Z_MSC_RDPS_SpecificHumidity_IsbL-0750_RLatLon0.09_PT039H.grib2 2026-05-01 08:51 664K
20260501T06Z_MSC_RDPS_SpecificHumidity_IsbL-0800_RLatLon0.09_PT039H.grib2 2026-05-01 08:51 740K
20260501T06Z_MSC_RDPS_SpecificHumidity_IsbL-0850_RLatLon0.09_PT039H.grib2 2026-05-01 08:51 814K
20260501T06Z_MSC_RDPS_SpecificHumidity_IsbL-0875_RLatLon0.09_PT039H.grib2 2026-05-01 08:51 841K
20260501T06Z_MSC_RDPS_SpecificHumidity_IsbL-0900_RLatLon0.09_PT039H.grib2 2026-05-01 08:51 714K
20260501T06Z_MSC_RDPS_SpecificHumidity_IsbL-0925_RLatLon0.09_PT039H.grib2 2026-05-01 08:51 712K
20260501T06Z_MSC_RDPS_SpecificHumidity_IsbL-0950_RLatLon0.09_PT039H.grib2 2026-05-01 08:51 712K
20260501T06Z_MSC_RDPS_SpecificHumidity_IsbL-0970_RLatLon0.09_PT039H.grib2 2026-05-01 08:51 704K
20260501T06Z_MSC_RDPS_SpecificHumidity_IsbL-0985_RLatLon0.09_PT039H.grib2 2026-05-01 08:51 696K
20260501T06Z_MSC_RDPS_SpecificHumidity_IsbL-1000_RLatLon0.09_PT039H.grib2 2026-05-01 08:51 692K
20260501T06Z_MSC_RDPS_SpecificHumidity_IsbL-1015_RLatLon0.09_PT039H.grib2 2026-05-01 08:51 680K
20260501T06Z_MSC_RDPS_SpecificHumidity_Sfc_RLatLon0.09_PT039H.grib2 2026-05-01 08:51 344K
20260501T06Z_MSC_RDPS_StormRelativeHelicity_EtaL-10000_RLatLon0.09_PT039H.grib2 2026-05-01 08:51 1.1M
20260501T06Z_MSC_RDPS_StormSeverityIndex_EtaL-10000_RLatLon0.09_PT039H.grib2 2026-05-01 08:51 1.1M
20260501T06Z_MSC_RDPS_Thickness_IsbL-0850to0700_RLatLon0.09_PT039H.grib2 2026-05-01 08:51 178K
20260501T06Z_MSC_RDPS_Thickness_IsbL-1000to0500_RLatLon0.09_PT039H.grib2 2026-05-01 08:51 199K
20260501T06Z_MSC_RDPS_Thickness_IsbL-1000to0850_RLatLon0.09_PT039H.grib2 2026-05-01 08:51 187K
20260501T06Z_MSC_RDPS_TotalCloudCover_Sfc_RLatLon0.09_PT039H.grib2 2026-05-01 08:51 646K
20260501T06Z_MSC_RDPS_TotalTotalsIndex_Sfc_RLatLon0.09_PT039H.grib2 2026-05-01 08:51 2.3M
20260501T06Z_MSC_RDPS_UVIndex-ClearSky_Sfc_RLatLon0.09_PT039H.grib2 2026-05-01 08:51 200K
20260501T06Z_MSC_RDPS_UVIndex_Sfc_RLatLon0.09_PT039H.grib2 2026-05-01 08:51 470K
20260501T06Z_MSC_RDPS_UpwardLongwaveRadiationFlux_NTAtm_RLatLon0.09_PT039H.grib2 2026-05-01 08:51 380K
20260501T06Z_MSC_RDPS_UpwardShortwaveRadiationFlux_NTAtm_RLatLon0.09_PT039H.grib2 2026-05-01 08:51 507K
20260501T06Z_MSC_RDPS_VerticalVelocity_IsbL-0250_RLatLon0.09_PT039H.grib2 2026-05-01 08:51 430K
20260501T06Z_MSC_RDPS_VerticalVelocity_IsbL-0500_RLatLon0.09_PT039H.grib2 2026-05-01 08:51 499K
20260501T06Z_MSC_RDPS_VerticalVelocity_IsbL-0700_RLatLon0.09_PT039H.grib2 2026-05-01 08:51 600K
20260501T06Z_MSC_RDPS_VerticalVelocity_IsbL-0850_RLatLon0.09_PT039H.grib2 2026-05-01 08:51 701K
20260501T06Z_MSC_RDPS_VerticalWindShear_EtaL-6500_RLatLon0.09_PT039H.grib2 2026-05-01 08:51 1.2M
20260501T06Z_MSC_RDPS_WindChill_Sfc_RLatLon0.09_PT039H.grib2 2026-05-01 08:51 1.1M
20260501T06Z_MSC_RDPS_WindDir_AGL-10m_RLatLon0.09_PT039H.grib2 2026-05-01 08:51 945K
20260501T06Z_MSC_RDPS_WindDir_AGL-120m_RLatLon0.09_PT039H.grib2 2026-05-01 08:51 595K
20260501T06Z_MSC_RDPS_WindDir_AGL-40m_RLatLon0.09_PT039H.grib2 2026-05-01 08:51 615K
20260501T06Z_MSC_RDPS_WindDir_AGL-80m_RLatLon0.09_PT039H.grib2 2026-05-01 08:51 604K
20260501T06Z_MSC_RDPS_WindDir_IsbL-0001_RLatLon0.09_PT039H.grib2 2026-05-01 08:51 280K
20260501T06Z_MSC_RDPS_WindDir_IsbL-0005_RLatLon0.09_PT039H.grib2 2026-05-01 08:51 364K
20260501T06Z_MSC_RDPS_WindDir_IsbL-0010_RLatLon0.09_PT039H.grib2 2026-05-01 08:51 383K
20260501T06Z_MSC_RDPS_WindDir_IsbL-0020_RLatLon0.09_PT039H.grib2 2026-05-01 08:51 420K
20260501T06Z_MSC_RDPS_WindDir_IsbL-0030_RLatLon0.09_PT039H.grib2 2026-05-01 08:51 417K
20260501T06Z_MSC_RDPS_WindDir_IsbL-0050_RLatLon0.09_PT039H.grib2 2026-05-01 08:51 419K
20260501T06Z_MSC_RDPS_WindDir_IsbL-0100_RLatLon0.09_PT039H.grib2 2026-05-01 08:51 414K
20260501T06Z_MSC_RDPS_WindDir_IsbL-0150_RLatLon0.09_PT039H.grib2 2026-05-01 08:51 408K
20260501T06Z_MSC_RDPS_WindDir_IsbL-0175_RLatLon0.09_PT039H.grib2 2026-05-01 08:51 424K
20260501T06Z_MSC_RDPS_WindDir_IsbL-0200_RLatLon0.09_PT039H.grib2 2026-05-01 08:51 438K
20260501T06Z_MSC_RDPS_WindDir_IsbL-0225_RLatLon0.09_PT039H.grib2 2026-05-01 08:51 442K
20260501T06Z_MSC_RDPS_WindDir_IsbL-0250_RLatLon0.09_PT039H.grib2 2026-05-01 08:51 445K
20260501T06Z_MSC_RDPS_WindDir_IsbL-0275_RLatLon0.09_PT039H.grib2 2026-05-01 08:51 469K
20260501T06Z_MSC_RDPS_WindDir_IsbL-0300_RLatLon0.09_PT039H.grib2 2026-05-01 08:51 469K
20260501T06Z_MSC_RDPS_WindDir_IsbL-0350_RLatLon0.09_PT039H.grib2 2026-05-01 08:51 495K
20260501T06Z_MSC_RDPS_WindDir_IsbL-0400_RLatLon0.09_PT039H.grib2 2026-05-01 08:51 511K
20260501T06Z_MSC_RDPS_WindDir_IsbL-0450_RLatLon0.09_PT039H.grib2 2026-05-01 08:51 527K
20260501T06Z_MSC_RDPS_WindDir_IsbL-0500_RLatLon0.09_PT039H.grib2 2026-05-01 08:51 543K
20260501T06Z_MSC_RDPS_WindDir_IsbL-0550_RLatLon0.09_PT039H.grib2 2026-05-01 08:51 554K
20260501T06Z_MSC_RDPS_WindDir_IsbL-0600_RLatLon0.09_PT039H.grib2 2026-05-01 08:51 581K
20260501T06Z_MSC_RDPS_WindDir_IsbL-0650_RLatLon0.09_PT039H.grib2 2026-05-01 08:51 615K
20260501T06Z_MSC_RDPS_WindDir_IsbL-0700_RLatLon0.09_PT039H.grib2 2026-05-01 08:51 660K
20260501T06Z_MSC_RDPS_WindDir_IsbL-0750_RLatLon0.09_PT039H.grib2 2026-05-01 08:51 709K
20260501T06Z_MSC_RDPS_WindDir_IsbL-0800_RLatLon0.09_PT039H.grib2 2026-05-01 08:51 769K
20260501T06Z_MSC_RDPS_WindDir_IsbL-0850_RLatLon0.09_PT039H.grib2 2026-05-01 08:51 848K
20260501T06Z_MSC_RDPS_WindDir_IsbL-0875_RLatLon0.09_PT039H.grib2 2026-05-01 08:51 879K
20260501T06Z_MSC_RDPS_WindDir_IsbL-0900_RLatLon0.09_PT039H.grib2 2026-05-01 08:51 895K
20260501T06Z_MSC_RDPS_WindDir_IsbL-0925_RLatLon0.09_PT039H.grib2 2026-05-01 08:51 900K
20260501T06Z_MSC_RDPS_WindDir_IsbL-0950_RLatLon0.09_PT039H.grib2 2026-05-01 08:51 895K
20260501T06Z_MSC_RDPS_WindDir_IsbL-0970_RLatLon0.09_PT039H.grib2 2026-05-01 08:51 904K
20260501T06Z_MSC_RDPS_WindDir_IsbL-0985_RLatLon0.09_PT039H.grib2 2026-05-01 08:51 912K
20260501T06Z_MSC_RDPS_WindDir_IsbL-1000_RLatLon0.09_PT039H.grib2 2026-05-01 08:51 923K
20260501T06Z_MSC_RDPS_WindDir_IsbL-1015_RLatLon0.09_PT039H.grib2 2026-05-01 08:51 938K
20260501T06Z_MSC_RDPS_WindGust-Max_AGL-10m_RLatLon0.09_PT039H.grib2 2026-05-01 08:51 947K
20260501T06Z_MSC_RDPS_WindGust-Min_AGL-10m_RLatLon0.09_PT039H.grib2 2026-05-01 08:51 1.0M
20260501T06Z_MSC_RDPS_WindGust_AGL-10m_RLatLon0.09_PT039H.grib2 2026-05-01 08:51 1.0M
20260501T06Z_MSC_RDPS_WindSpeed_AGL-10m_RLatLon0.09_PT039H.grib2 2026-05-01 08:51 834K
20260501T06Z_MSC_RDPS_WindSpeed_AGL-120m_RLatLon0.09_PT039H.grib2 2026-05-01 08:51 531K
20260501T06Z_MSC_RDPS_WindSpeed_AGL-40m_RLatLon0.09_PT039H.grib2 2026-05-01 08:51 535K
20260501T06Z_MSC_RDPS_WindSpeed_AGL-80m_RLatLon0.09_PT039H.grib2 2026-05-01 08:51 532K
20260501T06Z_MSC_RDPS_WindSpeed_IsbL-0001_RLatLon0.09_PT039H.grib2 2026-05-01 08:51 251K
20260501T06Z_MSC_RDPS_WindSpeed_IsbL-0005_RLatLon0.09_PT039H.grib2 2026-05-01 08:51 347K
20260501T06Z_MSC_RDPS_WindSpeed_IsbL-0010_RLatLon0.09_PT039H.grib2 2026-05-01 08:51 395K
20260501T06Z_MSC_RDPS_WindSpeed_IsbL-0020_RLatLon0.09_PT039H.grib2 2026-05-01 08:51 319K
20260501T06Z_MSC_RDPS_WindSpeed_IsbL-0030_RLatLon0.09_PT039H.grib2 2026-05-01 08:51 318K
20260501T06Z_MSC_RDPS_WindSpeed_IsbL-0050_RLatLon0.09_PT039H.grib2 2026-05-01 08:51 451K
20260501T06Z_MSC_RDPS_WindSpeed_IsbL-0100_RLatLon0.09_PT039H.grib2 2026-05-01 08:51 475K
20260501T06Z_MSC_RDPS_WindSpeed_IsbL-0150_RLatLon0.09_PT039H.grib2 2026-05-01 08:51 383K
20260501T06Z_MSC_RDPS_WindSpeed_IsbL-0175_RLatLon0.09_PT039H.grib2 2026-05-01 08:51 407K
20260501T06Z_MSC_RDPS_WindSpeed_IsbL-0200_RLatLon0.09_PT039H.grib2 2026-05-01 08:51 442K
20260501T06Z_MSC_RDPS_WindSpeed_IsbL-0225_RLatLon0.09_PT039H.grib2 2026-05-01 08:51 448K
20260501T06Z_MSC_RDPS_WindSpeed_IsbL-0250_RLatLon0.09_PT039H.grib2 2026-05-01 08:51 451K
20260501T06Z_MSC_RDPS_WindSpeed_IsbL-0275_RLatLon0.09_PT039H.grib2 2026-05-01 08:51 468K
20260501T06Z_MSC_RDPS_WindSpeed_IsbL-0300_RLatLon0.09_PT039H.grib2 2026-05-01 08:51 465K
20260501T06Z_MSC_RDPS_WindSpeed_IsbL-0350_RLatLon0.09_PT039H.grib2 2026-05-01 08:51 477K
20260501T06Z_MSC_RDPS_WindSpeed_IsbL-0400_RLatLon0.09_PT039H.grib2 2026-05-01 08:51 480K
20260501T06Z_MSC_RDPS_WindSpeed_IsbL-0450_RLatLon0.09_PT039H.grib2 2026-05-01 08:51 463K
20260501T06Z_MSC_RDPS_WindSpeed_IsbL-0500_RLatLon0.09_PT039H.grib2 2026-05-01 08:51 464K
20260501T06Z_MSC_RDPS_WindSpeed_IsbL-0550_RLatLon0.09_PT039H.grib2 2026-05-01 08:51 585K
20260501T06Z_MSC_RDPS_WindSpeed_IsbL-0600_RLatLon0.09_PT039H.grib2 2026-05-01 08:51 597K
20260501T06Z_MSC_RDPS_WindSpeed_IsbL-0650_RLatLon0.09_PT039H.grib2 2026-05-01 08:51 615K
20260501T06Z_MSC_RDPS_WindSpeed_IsbL-0700_RLatLon0.09_PT039H.grib2 2026-05-01 08:51 685K
20260501T06Z_MSC_RDPS_WindSpeed_IsbL-0750_RLatLon0.09_PT039H.grib2 2026-05-01 08:51 715K
20260501T06Z_MSC_RDPS_WindSpeed_IsbL-0800_RLatLon0.09_PT039H.grib2 2026-05-01 08:51 756K
20260501T06Z_MSC_RDPS_WindSpeed_IsbL-0850_RLatLon0.09_PT039H.grib2 2026-05-01 08:51 765K
20260501T06Z_MSC_RDPS_WindSpeed_IsbL-0875_RLatLon0.09_PT039H.grib2 2026-05-01 08:51 788K
20260501T06Z_MSC_RDPS_WindSpeed_IsbL-0900_RLatLon0.09_PT039H.grib2 2026-05-01 08:51 848K
20260501T06Z_MSC_RDPS_WindSpeed_IsbL-0925_RLatLon0.09_PT039H.grib2 2026-05-01 08:51 860K
20260501T06Z_MSC_RDPS_WindSpeed_IsbL-0950_RLatLon0.09_PT039H.grib2 2026-05-01 08:51 858K
20260501T06Z_MSC_RDPS_WindSpeed_IsbL-0970_RLatLon0.09_PT039H.grib2 2026-05-01 08:51 856K
20260501T06Z_MSC_RDPS_WindSpeed_IsbL-0985_RLatLon0.09_PT039H.grib2 2026-05-01 08:51 852K
20260501T06Z_MSC_RDPS_WindSpeed_IsbL-1000_RLatLon0.09_PT039H.grib2 2026-05-01 08:51 845K
20260501T06Z_MSC_RDPS_WindSpeed_IsbL-1015_RLatLon0.09_PT039H.grib2 2026-05-01 08:51 835K
20260501T06Z_MSC_RDPS_WindU_AGL-10m_RLatLon0.09_PT039H.grib2 2026-05-01 08:51 431K
20260501T06Z_MSC_RDPS_WindU_AGL-120m_RLatLon0.09_PT039H.grib2 2026-05-01 08:51 531K
20260501T06Z_MSC_RDPS_WindU_AGL-40m_RLatLon0.09_PT039H.grib2 2026-05-01 08:51 533K
20260501T06Z_MSC_RDPS_WindU_AGL-80m_RLatLon0.09_PT039H.grib2 2026-05-01 08:51 531K
20260501T06Z_MSC_RDPS_WindU_IsbL-0001_RLatLon0.09_PT039H.grib2 2026-05-01 08:51 243K
20260501T06Z_MSC_RDPS_WindU_IsbL-0005_RLatLon0.09_PT039H.grib2 2026-05-01 08:51 284K
20260501T06Z_MSC_RDPS_WindU_IsbL-0010_RLatLon0.09_PT039H.grib2 2026-05-01 08:51 295K
20260501T06Z_MSC_RDPS_WindU_IsbL-0020_RLatLon0.09_PT039H.grib2 2026-05-01 08:51 351K
20260501T06Z_MSC_RDPS_WindU_IsbL-0030_RLatLon0.09_PT039H.grib2 2026-05-01 08:51 351K
20260501T06Z_MSC_RDPS_WindU_IsbL-0050_RLatLon0.09_PT039H.grib2 2026-05-01 08:51 377K
20260501T06Z_MSC_RDPS_WindU_IsbL-0100_RLatLon0.09_PT039H.grib2 2026-05-01 08:51 430K
20260501T06Z_MSC_RDPS_WindU_IsbL-0150_RLatLon0.09_PT039H.grib2 2026-05-01 08:51 397K
20260501T06Z_MSC_RDPS_WindU_IsbL-0175_RLatLon0.09_PT039H.grib2 2026-05-01 08:51 420K
20260501T06Z_MSC_RDPS_WindU_IsbL-0200_RLatLon0.09_PT039H.grib2 2026-05-01 08:51 337K
20260501T06Z_MSC_RDPS_WindU_IsbL-0225_RLatLon0.09_PT039H.grib2 2026-05-01 08:51 341K
20260501T06Z_MSC_RDPS_WindU_IsbL-0250_RLatLon0.09_PT039H.grib2 2026-05-01 08:51 342K
20260501T06Z_MSC_RDPS_WindU_IsbL-0275_RLatLon0.09_PT039H.grib2 2026-05-01 08:51 356K
20260501T06Z_MSC_RDPS_WindU_IsbL-0300_RLatLon0.09_PT039H.grib2 2026-05-01 08:51 353K
20260501T06Z_MSC_RDPS_WindU_IsbL-0350_RLatLon0.09_PT039H.grib2 2026-05-01 08:51 363K
20260501T06Z_MSC_RDPS_WindU_IsbL-0400_RLatLon0.09_PT039H.grib2 2026-05-01 08:51 469K
20260501T06Z_MSC_RDPS_WindU_IsbL-0450_RLatLon0.09_PT039H.grib2 2026-05-01 08:51 469K
20260501T06Z_MSC_RDPS_WindU_IsbL-0500_RLatLon0.09_PT039H.grib2 2026-05-01 08:51 471K
20260501T06Z_MSC_RDPS_WindU_IsbL-0550_RLatLon0.09_PT039H.grib2 2026-05-01 08:51 475K
20260501T06Z_MSC_RDPS_WindU_IsbL-0600_RLatLon0.09_PT039H.grib2 2026-05-01 08:51 485K
20260501T06Z_MSC_RDPS_WindU_IsbL-0650_RLatLon0.09_PT039H.grib2 2026-05-01 08:51 485K
20260501T06Z_MSC_RDPS_WindU_IsbL-0700_RLatLon0.09_PT039H.grib2 2026-05-01 08:51 509K
20260501T06Z_MSC_RDPS_WindU_IsbL-0750_RLatLon0.09_PT039H.grib2 2026-05-01 08:51 537K
20260501T06Z_MSC_RDPS_WindU_IsbL-0800_RLatLon0.09_PT039H.grib2 2026-05-01 08:51 573K
20260501T06Z_MSC_RDPS_WindU_IsbL-0850_RLatLon0.09_PT039H.grib2 2026-05-01 08:51 619K
20260501T06Z_MSC_RDPS_WindU_IsbL-0875_RLatLon0.09_PT039H.grib2 2026-05-01 08:51 640K
20260501T06Z_MSC_RDPS_WindU_IsbL-0900_RLatLon0.09_PT039H.grib2 2026-05-01 08:51 651K
20260501T06Z_MSC_RDPS_WindU_IsbL-0925_RLatLon0.09_PT039H.grib2 2026-05-01 08:51 658K
20260501T06Z_MSC_RDPS_WindU_IsbL-0950_RLatLon0.09_PT039H.grib2 2026-05-01 08:51 653K
20260501T06Z_MSC_RDPS_WindU_IsbL-0970_RLatLon0.09_PT039H.grib2 2026-05-01 08:51 655K
20260501T06Z_MSC_RDPS_WindU_IsbL-0985_RLatLon0.09_PT039H.grib2 2026-05-01 08:51 790K
20260501T06Z_MSC_RDPS_WindU_IsbL-1000_RLatLon0.09_PT039H.grib2 2026-05-01 08:51 784K
20260501T06Z_MSC_RDPS_WindU_IsbL-1015_RLatLon0.09_PT039H.grib2 2026-05-01 08:51 822K
20260501T06Z_MSC_RDPS_WindV_AGL-10m_RLatLon0.09_PT039H.grib2 2026-05-01 08:51 430K
20260501T06Z_MSC_RDPS_WindV_AGL-120m_RLatLon0.09_PT039H.grib2 2026-05-01 08:51 413K
20260501T06Z_MSC_RDPS_WindV_AGL-40m_RLatLon0.09_PT039H.grib2 2026-05-01 08:51 531K
20260501T06Z_MSC_RDPS_WindV_AGL-80m_RLatLon0.09_PT039H.grib2 2026-05-01 08:51 413K
20260501T06Z_MSC_RDPS_WindV_IsbL-0001_RLatLon0.09_PT039H.grib2 2026-05-01 08:51 244K
20260501T06Z_MSC_RDPS_WindV_IsbL-0005_RLatLon0.09_PT039H.grib2 2026-05-01 08:51 286K
20260501T06Z_MSC_RDPS_WindV_IsbL-0010_RLatLon0.09_PT039H.grib2 2026-05-01 08:51 388K
20260501T06Z_MSC_RDPS_WindV_IsbL-0020_RLatLon0.09_PT039H.grib2 2026-05-01 08:51 314K
20260501T06Z_MSC_RDPS_WindV_IsbL-0030_RLatLon0.09_PT039H.grib2 2026-05-01 08:51 315K
20260501T06Z_MSC_RDPS_WindV_IsbL-0050_RLatLon0.09_PT039H.grib2 2026-05-01 08:51 343K
20260501T06Z_MSC_RDPS_WindV_IsbL-0100_RLatLon0.09_PT039H.grib2 2026-05-01 08:51 429K
20260501T06Z_MSC_RDPS_WindV_IsbL-0150_RLatLon0.09_PT039H.grib2 2026-05-01 08:51 397K
20260501T06Z_MSC_RDPS_WindV_IsbL-0175_RLatLon0.09_PT039H.grib2 2026-05-01 08:51 419K
20260501T06Z_MSC_RDPS_WindV_IsbL-0200_RLatLon0.09_PT039H.grib2 2026-05-01 08:51 336K
20260501T06Z_MSC_RDPS_WindV_IsbL-0225_RLatLon0.09_PT039H.grib2 2026-05-01 08:51 340K
20260501T06Z_MSC_RDPS_WindV_IsbL-0250_RLatLon0.09_PT039H.grib2 2026-05-01 08:51 341K
20260501T06Z_MSC_RDPS_WindV_IsbL-0275_RLatLon0.09_PT039H.grib2 2026-05-01 08:51 354K
20260501T06Z_MSC_RDPS_WindV_IsbL-0300_RLatLon0.09_PT039H.grib2 2026-05-01 08:51 351K
20260501T06Z_MSC_RDPS_WindV_IsbL-0350_RLatLon0.09_PT039H.grib2 2026-05-01 08:51 360K
20260501T06Z_MSC_RDPS_WindV_IsbL-0400_RLatLon0.09_PT039H.grib2 2026-05-01 08:51 362K
20260501T06Z_MSC_RDPS_WindV_IsbL-0450_RLatLon0.09_PT039H.grib2 2026-05-01 08:51 363K
20260501T06Z_MSC_RDPS_WindV_IsbL-0500_RLatLon0.09_PT039H.grib2 2026-05-01 08:51 467K
20260501T06Z_MSC_RDPS_WindV_IsbL-0550_RLatLon0.09_PT039H.grib2 2026-05-01 08:51 471K
20260501T06Z_MSC_RDPS_WindV_IsbL-0600_RLatLon0.09_PT039H.grib2 2026-05-01 08:51 482K
20260501T06Z_MSC_RDPS_WindV_IsbL-0650_RLatLon0.09_PT039H.grib2 2026-05-01 08:51 482K
20260501T06Z_MSC_RDPS_WindV_IsbL-0700_RLatLon0.09_PT039H.grib2 2026-05-01 08:51 506K
20260501T06Z_MSC_RDPS_WindV_IsbL-0750_RLatLon0.09_PT039H.grib2 2026-05-01 08:51 532K
20260501T06Z_MSC_RDPS_WindV_IsbL-0800_RLatLon0.09_PT039H.grib2 2026-05-01 08:51 567K
20260501T06Z_MSC_RDPS_WindV_IsbL-0850_RLatLon0.09_PT039H.grib2 2026-05-01 08:51 615K
20260501T06Z_MSC_RDPS_WindV_IsbL-0875_RLatLon0.09_PT039H.grib2 2026-05-01 08:51 635K
20260501T06Z_MSC_RDPS_WindV_IsbL-0900_RLatLon0.09_PT039H.grib2 2026-05-01 08:51 647K
20260501T06Z_MSC_RDPS_WindV_IsbL-0925_RLatLon0.09_PT039H.grib2 2026-05-01 08:51 654K
20260501T06Z_MSC_RDPS_WindV_IsbL-0950_RLatLon0.09_PT039H.grib2 2026-05-01 08:51 648K
20260501T06Z_MSC_RDPS_WindV_IsbL-0970_RLatLon0.09_PT039H.grib2 2026-05-01 08:51 649K
20260501T06Z_MSC_RDPS_WindV_IsbL-0985_RLatLon0.09_PT039H.grib2 2026-05-01 08:51 786K
20260501T06Z_MSC_RDPS_WindV_IsbL-1000_RLatLon0.09_PT039H.grib2 2026-05-01 08:51 781K
20260501T06Z_MSC_RDPS_WindV_IsbL-1015_RLatLon0.09_PT039H.grib2 2026-05-01 08:51 774K